| time (UTC) | temp F | wind direction | speed MPH | gust MPH | rain 1hr in | rain 24hr in | rain mn in | humidity % | barometer mb |
| 20260504191146 | 77 | 247 | 3.0 | 11.0 | 0.00 | 0.00 | 0.00 | 47 | 1017.3 |
| 20260504190647 | 77 | 293 | 3.0 | 11.0 | 0.00 | 0.00 | 0.00 | 47 | 1017.2 |
| 20260504190148 | 77 | 199 | 2.0 | 11.0 | 0.00 | 0.00 | 0.00 | 49 | 1017.3 |
| 20260504185648 | 77 | 186 | 4.0 | 12.0 | 0.00 | 0.00 | 0.00 | 49 | 1017.6 |
| 20260504185148 | 77 | 186 | 4.0 | 12.0 | 0.00 | 0.00 | 0.00 | 45 | 1017.5 |
| 20260504184647 | 77 | 184 | 2.0 | 8.0 | 0.00 | 0.00 | 0.00 | 47 | 1017.6 |
| 20260504184140 | 78 | 221 | 2.0 | 13.0 | 0.00 | 0.00 | 0.00 | 45 | 1017.5 |
| 20260504183910 | 77 | 267 | 2.0 | 13.0 | 0.00 | 0.00 | 0.00 | 45 | 1017.6 |
| 20260504183137 | 77 | 244 | 2.0 | 13.0 | 0.00 | 0.00 | 0.00 | 48 | 1017.6 |
| 20260504182637 | 76 | 192 | 3.0 | 13.0 | 0.00 | 0.00 | 0.00 | 47 | 1017.6 |
| 20260504182134 | 76 | 152 | 4.0 | 10.0 | 0.00 | 0.00 | 0.00 | 46 | 1017.6 |
| 20260504181635 | 77 | 178 | 3.0 | 10.0 | 0.00 | 0.00 | 0.00 | 46 | 1017.7 |
| 20260504181400 | 76 | 238 | 3.0 | 11.0 | 0.00 | 0.00 | 0.00 | 49 | 1017.6 |
| 20260504180629 | 77 | 186 | 3.0 | 11.0 | 0.00 | 0.00 | 0.00 | 45 | 1017.6 |
| 20260504180130 | 76 | 230 | 3.0 | 11.0 | 0.00 | 0.00 | 0.00 | 47 | 1017.7 |
| 20260504175628 | 76 | 218 | 3.0 | 11.0 | 0.00 | 0.00 | 0.00 | 49 | 1017.6 |
| 20260504175128 | 76 | 232 | 4.0 | 17.0 | 0.00 | 0.00 | 0.00 | 48 | 1017.9 |
| 20260504174900 | 76 | 201 | 5.0 | 17.0 | 0.00 | 0.00 | 0.00 | 49 | 1017.9 |
| 20260504174129 | 76 | 169 | 4.0 | 15.0 | 0.00 | 0.00 | 0.00 | 48 | 1018.0 |
| 20260504173858 | 76 | 237 | 3.0 | 10.0 | 0.00 | 0.00 | 0.00 | 47 | 1018.1 |
| 20260504173128 | 76 | 186 | 3.0 | 10.0 | 0.00 | 0.00 | 0.00 | 51 | 1018.2 |
| 20260504172630 | 76 | 217 | 3.0 | 7.0 | 0.00 | 0.00 | 0.00 | 47 | 1018.3 |
| 20260504172127 | 75 | 265 | 6.0 | 14.0 | 0.00 | 0.00 | 0.00 | 47 | 1018.4 |
| 20260504171857 | 75 | 207 | 7.0 | 15.0 | 0.00 | 0.00 | 0.00 | 46 | 1018.4 |
| 20260504171129 | 75 | 188 | 4.0 | 15.0 | 0.00 | 0.00 | 0.00 | 47 | 1018.6 |
| 20260504170854 | 75 | 194 | 3.0 | 11.0 | 0.00 | 0.00 | 0.00 | 46 | 1018.6 |
| 20260504170123 | 75 | 178 | 3.0 | 11.0 | 0.00 | 0.00 | 0.00 | 46 | 1018.6 |
| 20260504160114 | 74 | 252 | 3.0 | 9.0 | 0.00 | 0.00 | 0.00 | 46 | 1019.0 |
| 20260504150559 | 73 | 206 | 3.0 | 12.0 | 0.00 | 0.00 | 0.00 | 47 | 1019.0 |
| 20260504141048 | 71 | 215 | 1.0 | 9.0 | 0.00 | 0.00 | 0.00 | 61 | 1019.0 |
| 20260504140549 | 70 | 136 | 1.0 | 3.0 | 0.00 | 0.00 | 0.00 | 63 | 1019.0 |
| 20260504130536 | 63 | 130 | 0.0 | 0.0 | 0.00 | 0.00 | 0.00 | 77 | 1019.0 |
| 20260504110504 | 53 | 234 | 0.0 | 0.0 | 0.00 | 0.00 | 0.00 | 91 | 1018.2 |
| 20260504100443 | 53 | 234 | 0.0 | 0.0 | 0.00 | 0.00 | 0.00 | 90 | 1018.2 |
| 20260504081932 | 55 | 234 | 0.0 | 0.0 | 0.00 | 0.00 | 0.00 | 88 | 1018.7 |
| 20260504081431 | 55 | 234 | 0.0 | 0.0 | 0.00 | 0.00 | 0.00 | 87 | 1018.7 |
| 20260504080429 | 55 | 234 | 0.0 | 0.0 | 0.00 | 0.00 | 0.00 | 88 | 1018.9 |
| 20260504070303 | 56 | 234 | 0.0 | 0.0 | 0.00 | 0.00 | 0.00 | 85 | 1019.2 |
| 20260504070152 | 56 | 234 | 0.0 | 0.0 | 0.00 | 0.00 | 0.00 | 85 | 1019.2 |
| 20260504050348 | 59 | 234 | 0.0 | 0.0 | 0.00 | 0.00 | 0.00 | 76 | 1019.8 |
| 20260504045847 | 60 | 234 | 0.0 | 0.0 | 0.00 | 0.00 | 0.00 | 76 | 1019.9 |
| 20260504045344 | 60 | 234 | 0.0 | 0.0 | 0.00 | 0.00 | 0.00 | 76 | 1020.0 |
| 20260504045116 | 60 | 234 | 0.0 | 0.0 | 0.00 | 0.00 | 0.00 | 75 | 1019.9 |
| 20260504044338 | 60 | 234 | 0.0 | 0.0 | 0.00 | 0.00 | 0.00 | 74 | 1020.0 |
| 20260504043837 | 60 | 234 | 0.0 | 0.0 | 0.00 | 0.00 | 0.00 | 74 | 1020.0 |
| 20260504043335 | 61 | 234 | 0.0 | 0.0 | 0.00 | 0.00 | 0.00 | 74 | 1020.0 |
| 20260504042833 | 61 | 234 | 0.0 | 0.0 | 0.00 | 0.00 | 0.00 | 73 | 1020.2 |
| 20260504042333 | 61 | 234 | 0.0 | 0.0 | 0.00 | 0.00 | 0.00 | 72 | 1020.3 |
| 20260504041827 | 62 | 234 | 0.0 | 0.0 | 0.00 | 0.00 | 0.00 | 72 | 1020.3 |
| 20260504041324 | 62 | 234 | 0.0 | 2.0 | 0.00 | 0.00 | 0.00 | 72 | 1020.3 |
| 20260504041055 | 62 | 234 | 0.0 | 2.0 | 0.00 | 0.00 | 0.00 | 70 | 1020.3 |
| 20260504040551 | 62 | 234 | 0.0 | 2.0 | 0.00 | 0.00 | 0.00 | 69 | 1020.4 |
| 20260504035821 | 62 | 234 | 0.0 | 2.0 | 0.00 | 0.00 | 0.00 | 68 | 1020.4 |
| 20260504035319 | 63 | 234 | 0.0 | 2.0 | 0.00 | 0.00 | 0.00 | 68 | 1020.3 |
| 20260504034818 | 63 | 234 | 0.0 | 2.0 | 0.00 | 0.00 | 0.00 | 68 | 1020.3 |
| 20260504034317 | 63 | 234 | 0.0 | 2.0 | 0.00 | 0.00 | 0.00 | 67 | 1020.2 |
| 20260504033816 | 64 | 234 | 0.0 | 2.0 | 0.00 | 0.00 | 0.00 | 66 | 1020.2 |
| 20260504033314 | 64 | 234 | 0.0 | 2.0 | 0.00 | 0.00 | 0.00 | 65 | 1020.2 |
| 20260504032816 | 64 | 234 | 1.0 | 2.0 | 0.00 | 0.00 | 0.00 | 65 | 1020.1 |
| 20260504032310 | 64 | 234 | 1.0 | 2.0 | 0.00 | 0.00 | 0.00 | 65 | 1020.2 |
| 20260504031806 | 65 | 234 | 1.0 | 2.0 | 0.00 | 0.00 | 0.00 | 65 | 1020.1 |
| 20260504031305 | 65 | 234 | 1.0 | 1.0 | 0.00 | 0.00 | 0.00 | 64 | 1020.2 |
| 20260504030803 | 65 | 234 | 1.0 | 2.0 | 0.00 | 0.00 | 0.00 | 62 | 1020.3 |
| 20260504030533 | 65 | 234 | 1.0 | 2.0 | 0.00 | 0.00 | 0.00 | 62 | 1020.2 |
| 20260504025802 | 66 | 234 | 1.0 | 3.0 | 0.00 | 0.00 | 0.00 | 60 | 1020.2 |
| 20260504025259 | 66 | 220 | 1.0 | 3.0 | 0.00 | 0.00 | 0.00 | 61 | 1020.1 |
| 20260504024759 | 65 | 141 | 1.0 | 2.0 | 0.00 | 0.00 | 0.00 | 60 | 1020.1 |
| 20260504024259 | 64 | 204 | 0.0 | 2.0 | 0.00 | 0.00 | 0.00 | 68 | 1020.1 |
| 20260504023756 | 64 | 148 | 0.0 | 3.0 | 0.00 | 0.00 | 0.00 | 67 | 1020.0 |
| 20260504023258 | 64 | 148 | 0.0 | 3.0 | 0.00 | 0.00 | 0.00 | 66 | 1020.0 |
| 20260504023022 | 65 | 167 | 0.0 | 3.0 | 0.00 | 0.00 | 0.00 | 63 | 1020.0 |
| 20260504022251 | 65 | 167 | 0.0 | 3.0 | 0.00 | 0.00 | 0.00 | 64 | 1020.0 |
| 20260504022021 | 65 | 167 | 0.0 | 2.0 | 0.00 | 0.00 | 0.00 | 65 | 1020.0 |
| 20260504021247 | 66 | 167 | 0.0 | 2.0 | 0.00 | 0.00 | 0.00 | 65 | 1019.9 |
| 20260504020749 | 66 | 167 | 0.0 | 2.0 | 0.00 | 0.00 | 0.00 | 64 | 1019.9 |
| 20260504020243 | 66 | 167 | 1.0 | 4.0 | 0.00 | 0.00 | 0.00 | 62 | 1019.8 |
| 20260504015744 | 66 | 167 | 1.0 | 4.0 | 0.00 | 0.00 | 0.00 | 59 | 1019.7 |
| 20260504015246 | 66 | 157 | 1.0 | 3.0 | 0.00 | 0.00 | 0.00 | 61 | 1019.8 |
| 20260504014744 | 66 | 134 | 0.0 | 0.0 | 0.00 | 0.00 | 0.00 | 60 | 1019.7 |
| 20260504014243 | 66 | 134 | 0.0 | 0.0 | 0.00 | 0.00 | 0.00 | 59 | 1019.7 |
| 20260504013744 | 67 | 134 | 0.0 | 0.0 | 0.00 | 0.00 | 0.00 | 62 | 1019.6 |
| 20260504013511 | 67 | 134 | 0.0 | 0.0 | 0.00 | 0.00 | 0.00 | 60 | 1019.5 |
| 20260504012739 | 67 | 134 | 0.0 | 0.0 | 0.00 | 0.00 | 0.00 | 60 | 1019.4 |
| 20260504012512 | 67 | 134 | 0.0 | 0.0 | 0.00 | 0.00 | 0.00 | 59 | 1019.3 |
| 20260504012012 | 68 | 134 | 0.0 | 0.0 | 0.00 | 0.00 | 0.00 | 58 | 1019.3 |
| 20260504011239 | 68 | 134 | 0.0 | 0.0 | 0.00 | 0.00 | 0.00 | 56 | 1019.2 |
| 20260504010740 | 69 | 134 | 0.0 | 0.0 | 0.00 | 0.00 | 0.00 | 55 | 1019.3 |
| 20260504010235 | 69 | 134 | 0.0 | 0.0 | 0.00 | 0.00 | 0.00 | 53 | 1019.2 |
| 20260504005736 | 70 | 134 | 0.0 | 0.0 | 0.00 | 0.00 | 0.00 | 52 | 1019.2 |
| 20260504005236 | 70 | 134 | 0.0 | 0.0 | 0.00 | 0.00 | 0.00 | 52 | 1019.2 |
| 20260504004735 | 71 | 134 | 0.0 | 0.0 | 0.00 | 0.00 | 0.00 | 51 | 1019.2 |
| 20260504004236 | 71 | 134 | 0.0 | 0.0 | 0.00 | 0.00 | 0.00 | 48 | 1019.3 |
| 20260504003733 | 72 | 134 | 0.0 | 0.0 | 0.00 | 0.00 | 0.00 | 49 | 1019.2 |
| 20260504003234 | 72 | 134 | 0.0 | 0.0 | 0.00 | 0.00 | 0.00 | 45 | 1019.2 |
| 20260504002734 | 73 | 134 | 0.0 | 0.0 | 0.00 | 0.00 | 0.00 | 46 | 1019.3 |
| 20260504002233 | 73 | 134 | 0.0 | 0.0 | 0.00 | 0.00 | 0.00 | 46 | 1019.5 |
| 20260504001733 | 74 | 134 | 0.0 | 1.0 | 0.00 | 0.00 | 0.00 | 43 | 1019.5 |
| 20260504001227 | 74 | 134 | 1.0 | 3.0 | 0.00 | 0.00 | 0.00 | 39 | 1019.4 |
| 20260504000728 | 74 | 134 | 1.0 | 3.0 | 0.00 | 0.00 | 0.00 | 43 | 1019.5 |
| 20260504000459 | 74 | 161 | 0.0 | 2.0 | 0.00 | 0.00 | 0.00 | 45 | 1019.4 |
| 20260503235728 | 75 | 30 | 1.0 | 3.0 | 0.00 | 0.00 | 0.00 | 42 | 1019.3 |
| 20260503235456 | 75 | 30 | 1.0 | 4.0 | 0.00 | 0.00 | 0.00 | 44 | 1019.3 |
| 20260503234723 | 76 | 33 | 1.0 | 4.0 | 0.00 | 0.00 | 0.00 | 41 | 1019.4 |
| 20260503234220 | 76 | 11 | 1.0 | 3.0 | 0.00 | 0.00 | 0.00 | 41 | 1019.4 |
| 20260503233718 | 76 | 36 | 2.0 | 5.0 | 0.00 | 0.00 | 0.00 | 39 | 1019.4 |
| 20260503233216 | 76 | 67 | 2.0 | 5.0 | 0.00 | 0.00 | 0.00 | 40 | 1019.5 |
| 20260503232948 | 76 | 84 | 2.0 | 5.0 | 0.00 | 0.00 | 0.00 | 39 | 1019.6 |
| 20260503232217 | 76 | 76 | 2.0 | 5.0 | 0.00 | 0.00 | 0.00 | 40 | 1019.6 |
| 20260503231718 | 76 | 96 | 2.0 | 6.0 | 0.00 | 0.00 | 0.00 | 40 | 1019.6 |
| 20260503231218 | 77 | 30 | 2.0 | 6.0 | 0.00 | 0.00 | 0.00 | 38 | 1019.5 |
| 20260503230715 | 77 | 151 | 1.0 | 5.0 | 0.00 | 0.00 | 0.00 | 37 | 1019.6 |
| 20260503230217 | 77 | 223 | 1.0 | 5.0 | 0.00 | 0.00 | 0.00 | 39 | 1019.5 |
| 20260503225716 | 77 | 155 | 2.0 | 4.0 | 0.00 | 0.00 | 0.00 | 37 | 1019.5 |
| 20260503225215 | 77 | 115 | 2.0 | 5.0 | 0.00 | 0.00 | 0.00 | 37 | 1019.6 |
| 20260503224717 | 76 | 123 | 2.0 | 5.0 | 0.00 | 0.00 | 0.00 | 37 | 1019.6 |
| 20260503224449 | 76 | 60 | 1.0 | 6.0 | 0.00 | 0.00 | 0.00 | 37 | 1019.7 |
| 20260503223946 | 76 | 30 | 0.0 | 6.0 | 0.00 | 0.00 | 0.00 | 38 | 1019.6 |
| 20260503223213 | 76 | 324 | 2.0 | 9.0 | 0.00 | 0.00 | 0.00 | 39 | 1019.7 |
| 20260503222712 | 76 | 324 | 3.0 | 9.0 | 0.00 | 0.00 | 0.00 | 39 | 1019.7 |
| 20260503222210 | 77 | 20 | 2.0 | 8.0 | 0.00 | 0.00 | 0.00 | 37 | 1019.6 |
| 20260503221710 | 77 | 99 | 2.0 | 6.0 | 0.00 | 0.00 | 0.00 | 36 | 1019.7 |
| 20260503221210 | 78 | 41 | 1.0 | 3.0 | 0.00 | 0.00 | 0.00 | 37 | 1019.7 |
| 20260503220712 | 77 | 94 | 1.0 | 6.0 | 0.00 | 0.00 | 0.00 | 35 | 1019.8 |
| 20260503220209 | 77 | 107 | 3.0 | 11.0 | 0.00 | 0.00 | 0.00 | 37 | 1019.8 |
| 20260503215712 | 77 | 87 | 3.0 | 8.0 | 0.00 | 0.00 | 0.00 | 37 | 1020.0 |
| 20260503215706 | 77 | 111 | 4.0 | 11.0 | 0.00 | 0.00 | 0.00 | 37 | 1020.0 |
| 20260503214706 | 77 | 80 | 3.0 | 8.0 | 0.00 | 0.00 | 0.00 | 37 | 1020.0 |
| 20260503214204 | 77 | 73 | 2.0 | 7.0 | 0.00 | 0.00 | 0.00 | 36 | 1020.0 |
| 20260503213704 | 76 | 44 | 3.0 | 9.0 | 0.00 | 0.00 | 0.00 | 38 | 1020.1 |
| 20260503213159 | 77 | 26 | 2.0 | 9.0 | 0.00 | 0.00 | 0.00 | 37 | 1020.2 |
| 20260503212700 | 78 | 91 | 1.0 | 4.0 | 0.00 | 0.00 | 0.00 | 36 | 1020.3 |
| 20260503212159 | 77 | 136 | 2.0 | 7.0 | 0.00 | 0.00 | 0.00 | 37 | 1020.4 |
| 20260503211700 | 77 | 75 | 2.0 | 9.0 | 0.00 | 0.00 | 0.00 | 36 | 1020.5 |
| 20260503211158 | 77 | 107 | 2.0 | 9.0 | 0.00 | 0.00 | 0.00 | 39 | 1020.6 |
| 20260503210929 | 77 | 84 | 5.0 | 12.0 | 0.00 | 0.00 | 0.00 | 37 | 1020.6 |
| 20260503210150 | 77 | 74 | 3.0 | 12.0 | 0.00 | 0.00 | 0.00 | 37 | 1020.7 |
| 20260503205650 | 77 | 0 | 1.0 | 3.0 | 0.00 | 0.00 | 0.00 | 39 | 1020.7 |
| 20260503205150 | 77 | 282 | 2.0 | 5.0 | 0.00 | 0.00 | 0.00 | 35 | 1020.7 |
| 20260503204650 | 77 | 184 | 3.0 | 9.0 | 0.00 | 0.00 | 0.00 | 39 | 1020.8 |
| 20260503204149 | 77 | 69 | 3.0 | 9.0 | 0.00 | 0.00 | 0.00 | 37 | 1020.8 |
| 20260503203647 | 76 | 128 | 3.0 | 9.0 | 0.00 | 0.00 | 0.00 | 35 | 1020.9 |
| 20260503203145 | 76 | 98 | 3.0 | 10.0 | 0.00 | 0.00 | 0.00 | 36 | 1021.0 |
| 20260503202913 | 77 | 16 | 4.0 | 10.0 | 0.00 | 0.00 | 0.00 | 37 | 1021.2 |
| 20260503202144 | 77 | 84 | 3.0 | 8.0 | 0.00 | 0.00 | 0.00 | 36 | 1021.3 |
| 20260503201642 | 77 | 190 | 3.0 | 9.0 | 0.00 | 0.00 | 0.00 | 36 | 1021.3 |
| 20260503201142 | 77 | 121 | 3.0 | 9.0 | 0.00 | 0.00 | 0.00 | 35 | 1021.4 |
| 20260503200641 | 76 | 281 | 3.0 | 9.0 | 0.00 | 0.00 | 0.00 | 41 | 1021.4 |
| 20260503200136 | 76 | 0 | 4.0 | 11.0 | 0.00 | 0.00 | 0.00 | 35 | 1021.7 |
| 20260503195641 | 76 | 81 | 5.0 | 9.0 | 0.00 | 0.00 | 0.00 | 38 | 1021.9 |
| 20260503195635 | 77 | 79 | 5.0 | 11.0 | 0.00 | 0.00 | 0.00 | 36 | 1021.8 |
| 20260503194635 | 76 | 135 | 4.0 | 9.0 | 0.00 | 0.00 | 0.00 | 34 | 1022.0 |
| 20260503194406 | 76 | 63 | 4.0 | 9.0 | 0.00 | 0.00 | 0.00 | 35 | 1022.0 |
| 20260503193637 | 76 | 17 | 4.0 | 9.0 | 0.00 | 0.00 | 0.00 | 36 | 1022.2 |
| 20260503193403 | 76 | 17 | 4.0 | 10.0 | 0.00 | 0.00 | 0.00 | 36 | 1022.3 |
| 20260503192630 | 76 | 346 | 3.0 | 10.0 | 0.00 | 0.00 | 0.00 | 34 | 1022.3 |
| 20260503192131 | 76 | 13 | 4.0 | 10.0 | 0.00 | 0.00 | 0.00 | 37 | 1022.5 |
| 20260503191632 | 76 | 28 | 4.0 | 10.0 | 0.00 | 0.00 | 0.00 | 35 | 1022.5 |